Duchifat 3
1 44854U 19089C   25100.47953668  .00066276  00000-0  15764-2 0  9990
2 44854  36.9467  15.7652 0001995 335.7021  24.3640 15.40561184293720
TO-108
1 44881U 19093C   25100.81397206  .00002469  00000-0  29214-3 0  9993
2 44881  97.7948 177.7129 0015187  70.6181 289.6674 14.85428312287209
FloripaSat 1
1 44885U 19093G   25100.83530987  .00011213  00000-0  96308-3 0  9999
2 44885  97.8150 188.3524 0010737  51.7204 308.4982 14.97577558287806
RS-44
1 44909U 19096E   25100.51219207  .00000026  00000-0  51133-4 0  9991
2 44909  82.5170 267.1913 0218427  76.1414 286.3882 12.79740098247004
UPMSat 2
1 46276U 20061E   25100.76298912  .00070366  00000-0  85471-3 0  9996
2 46276  97.2506 173.4814 0001776 145.4181 214.7192 15.60359108256118
SALSAT
1 46495U 20068K   25100.46970963  .00016000  00000-0  71052-3 0  9991
2 46495  97.8559  75.7843 0012363  21.5921 338.5833 15.21572333249383
CubeSX-Sirius-HSE
1 47951U 21022V   25100.83453415  .00188726  00000-0  16584-2 0  9992
2 47951  97.4234  10.5801 0010549 130.6481 229.5699 15.68148808224407
CubeSX-HSE
1 47952U 21022W   25100.85868949  .00183064  00000-0  15727-2 0  9995
2 47952  97.4246  10.8350 0010468 126.8247 233.3976 15.68721999224421
GRBAlpha
1 47959U 21022AD  25100.82957153  .00174251  00000-0  15270-2 0  9996
2 47959  97.4230  10.9329 0010341 130.2301 229.9867 15.68262580223243
Orbicraft-Zorkiy
1 47960U 21022AE  25100.71331140  .03300757  24508-5  18034-2 0  9998
2 47960  97.4091  15.5530 0007280 168.5832 191.5623 16.19612395224195
TUBIN
1 48900U 21059X   25100.85390747  .00061955  00000-0  94098-3 0  9998
2 48900  97.6714 265.5049 0003453 113.9026 246.2589 15.54372470210743
LEDSAT
1 49069U 21073D   25100.78158078  .00072378  00000-0  11811-2 0  9994
2 49069  97.3939 180.1815 0010740 287.9417  72.0664 15.52279545202132
CUTE
1 49263U 21088D   25099.95945121  .00023746  00000-0  51593-3 0  9992
2 49263  97.4546 174.5594 0010117 105.9376 254.2988 15.44297399195069
TeikyoSat 4
1 49396U 21102B   25100.54614801  .00004025  00000-0  27029-3 0  9998
2 49396  97.4171 141.1309 0011991 347.1434  12.9487 15.07295499187501
Z-Sat
1 49399U 21102E   25100.87599343  .00008383  00000-0  46695-3 0  9991
2 49399  97.3873 144.1883 0016897 314.3425  45.6421 15.13739053187943
KOSEN 1
1 49402U 21102H   25100.69124065  .00013137  00000-0  62472-3 0  9995
2 49402  97.3780 146.9878 0014453 289.3520  70.6152 15.19222496188193
HO-113
1 50466U 21131B   25100.89724148  .00001323  00000-0  42774-3 0  9996
2 50466  98.5083 190.5536 0003229 327.8261  32.2730 14.40710936172855
IRIS-A
1 51044U 22002BN  25100.73112165  .00203523  00000-0  14250-2 0  9993
2 51044  97.3301 177.9454 0000536 238.3717 121.7495 15.73634673180408
Foresail-1
1 52766U 22057AL  25100.35935710  .00168557  00000-0  13260-2 0  9999
2 52766  97.6025 245.9925 0003954 182.6823 177.4419 15.70959427160373
SNUGLITE 2
1 52899U 22065F   25100.37738440  .00002992  00000-0  59287-3 0  9998
2 52899  98.1581 242.9756 0006475 306.2058  53.8544 14.62994266147682
IO-117
1 53106U 22080B   25051.21822557 -.00000003  00000-0  00000+0 0  9995
2 53106  70.1434 106.3440 0008542  48.0089 312.1297  6.42557744 61200
UmKA 1 (RS40S)
1 57172U 23091G   25100.83163334  .00011340  00000-0  61853-3 0  9991
2 57172  97.5651 156.5400 0015189 175.4684 184.6688 15.14432427 98435
CubeBel-2 (EU11S)
1 57175U 23091K   25100.80881974  .00016180  00000-0  80086-3 0  9994
2 57175  97.5651 157.3260 0013081 182.9889 177.1269 15.17800766 98485
VERONIKA
1 58261U 23174F   25100.84707455  .00113836  00000-0  16478-2 0  9997
2 58261  97.4176 184.1202 0007464 246.4221 113.6249 15.55470400 79359
ENSO
1 58470U 23185J   25100.88894574  .00064547  00000-0  11953-2 0  9991
2 58470  97.3784 174.3854 0006590 283.8195  76.2322 15.48768909 75777
EIRSAT-1
1 58472U 23185L   25100.85662625  .00099022  00000-0  14410-2 0  9997
2 58472  97.3763 175.4500 0006034 278.3436  81.7134 15.55389944 75842
SONATE-2
1 59112U 24043Q   25100.31145682  .00031554  00000-0  98168-3 0  9992
2 59112  97.5041 230.4182 0010592 329.9716  30.0917 15.33197719 61092
MO-122
1 60209U 24125G   25100.07656657  .00030140  00000-0  92601-3 0  9990
2 60209  97.2881 312.4484 0019429 358.5983   1.5202 15.33471190 42679
GRBBeta
1 60237U 24128C   25100.76676583  .00008469  00000-0  64422-3 0  9999
2 60237  61.9911 288.0094 0046305  44.5870 315.8931 15.01947077 41213
Curium One
1 60242U 24128H   25100.76045460  .00013495  00000-0  96373-3 0  9994
2 60242  61.9813 287.1284 0046070  40.1711 320.2771 15.03947089 41235
ROBUSTA-3A
1 60243U 24128J   25100.74574257  .00011659  00000-0  84526-3 0  9991
2 60243  61.9885 287.8173 0044529  38.0521 322.3701 15.03544460 41222
CatSat
1 60246U 24125J   25100.31317448  .00015927  00000-0  55431-3 0  9996
2 60246  97.2662 312.5392 0042323 310.1127  49.6407 15.28901319 40773
HYPERVIEW-1G (RS66S)
1 61772U 24199AP  25100.86569251  .00032123  00000-0  10193-2 0  9995
2 61772  97.3634 329.9344 0015682  52.5236 307.7430 15.32495141 67806
AO-123
1 61781U 24199AY  25100.85218222  .00012470  00000-0  46652-3 0  9996
2 61781  97.3643 329.3627 0017549  53.8139 306.4720 15.27310646 67767
ZIMSAT 2
1 61783U 24199BA  25100.88722220  .00046290  00000-0  13253-2 0  9996
2 61783  97.3622 330.1994 0016250  51.4516 308.8181 15.35660812 70970
HADES-R (SO-124)
1 62690U 25009CK  25100.18567625  .00057878  00000-0  23756-2 0  9997
2 62690  97.4122 181.4313 0002378 260.4885  99.6084 15.24005065 12933
HYDRA-T
1 62692U 25009CM  25100.17933147  .00063087  00000-0  25743-2 0  9991
2 62692  97.4135 181.4402 0002630 256.1736 103.9208 15.24174915 12934
JINJUSat 1B
1 63210U 25052A   25100.81591022  .00019810  00000-0  95115-3 0  9995
2 63210  97.4493 355.7428 0005297 146.5835 213.5735 15.18878512  4173
NUSHSAT 1
1 63211U 25052B   25100.81642096  .00021684  00000-0  10395-2 0  9992
2 63211  97.4485 355.7394 0005142 150.4636 209.6890 15.18914115  4177
TEVEL2-4
1 63213U 25052D   25100.81975046  .00020770  00000-0  10023-2 0  9991
2 63213  97.4402 355.7086 0003735 158.2624 201.8770 15.18698099  4176
TEVEL2-5
1 63214U 25052E   25100.81981438  .00020683  00000-0  99833-3 0  9994
2 63214  97.4401 355.7087 0003736 158.3470 201.7923 15.18691133  4179
TEVEL2-6
1 63215U 25052F   25100.88628699  .00020593  00000-0  99506-3 0  9996
2 63215  97.4403 355.7730 0003752 159.5015 200.6371 15.18655127  4182
TEVEL2-1
1 63217U 25052H   25100.49405470  .00023706  00000-0  11511-2 0  9993
2 63217  97.4381 355.3723 0003270 173.3654 186.7624 15.18456319  4126
TEVEL2-2
1 63218U 25052J   25100.82369502  .00019870  00000-0  96565-3 0  9996
2 63218  97.4400 355.6985 0003588 170.8933 189.2367 15.18463319  4171
TEVEL2-3
1 63219U 25052K   25100.82369926  .00021425  00000-0  10408-2 0  9997
2 63219  97.4379 355.6964 0003358 173.9160 186.2115 15.18461837  4176
TEVEL2-8
1 63237U 25052AD  25100.84303591  .00020418  00000-0  10243-2 0  9993
2 63237  97.4444 355.6906 0007122 210.3390 149.7432 15.17330565  4177
TEVEL2-9
1 63238U 25052AE  25100.90943696  .00019935  00000-0  10011-2 0  9992
2 63238  97.4446 355.7554 0007226 210.0290 150.0530 15.17299127  4184
TEVEL2-7
1 63239U 25052AF  25100.90999573  .00019912  00000-0  10010-2 0  9992
2 63239  97.4445 355.7545 0007220 210.4791 149.6024 15.17262146  4181
